Temp
65 65 65 65 65 65 65 65 65 66 66 66 66 65 65 65 65 65 63 70 72 70 68 74 72 70 68 67 67 70 58 54 60 63 64 69 65 68 68 68 67 69 67 69 68
64 64 64 65 65 64 64 65 65 65 65 66 66 66 65 64 65 61 71 70 70 69 70 70 65 67 63 62 64 58 56 60 69 68 65 68 65 67 64 65 62 65 69 68 67
63 63 64 64 64 64 64 64 64 65 65 65 66 65 64 65 58 60 71 70 69 69 70 70 70 63 56 61 62 62 57 67 67 67 69 69 64 69 63 60 66 64 65 65 66
63 63 63 63 63 64 64 64 64 64 65 65 65 65 63 64 47 68 70 69 69 72 71 69 67 57 53 53 64 57 67 68 66 67 67 65 69 64 65 63 68 69 70 65 65
62 62 62 62 63 63 64 63 64 64 64 64 65 64 62 54 57 72 67 68 70 69 67 66 63 59 52 56 55 59 62 67 67 65 67 66 63 62 64 69 71 72 70 64 65
61 61 61 61 62 63 63 63 63 63 64 64 64 64 59 48 71 75 70 67 68 67 66 67 65 66 61 60 56 61 65 64 65 65 65 64 63 64 64 69 68 69 66 64 63
61 61 61 61 61 62 62 63 63 63 63 64 64 62 55 56 73 74 71 67 69 68 64 68 70 65 64 58 65 61 56 63 61 63 64 63 59 58 64 67 66 67 66 66 65
61 60 60 60 60 61 62 62 62 62 62 64 64 60 50 66 69 71 70 68 70 72 69 70 70 63 59 62 61 56 57 49 60 62 65 62 50 63 68 62 64 66 66 65 65
60 60 59 59 60 60 61 61 61 62 62 63 59 55 49 62 59 70 70 64 65 68 69 70 66 58 54 52 49 51 44 48 55 63 60 58 54 64 70 66 61 64 65 66 66
59 59 59 59 59 60 60 61 61 60 61 62 59 49 52 53 59 63 70 67 62 61 59 58 55 51 50 47 40 43 45 50 50 59 58 56 56 62 64 64 62 62 64 65 66
59 59 59 59 59 60 59 55 48 47 52 50 50 51 54 62 63 58 63 61 61 56 47 52 45 42 48 50 54 54 50 49 53 60 55 53 57 59 64 62 61 62 63 64 66
58 58 59 59 60 60 59 51 54 58 44 53 56 54 59 60 51 56 62 52 51 45 51 46 41 51 55 55 51 51 50 50 54 55 52 54 55 61 62 62 64 65 64 65 66
58 58 58 59 59 57 55 56 64 64 48 50 53 54 54 57 50 52 57 55 48 46 47 44 49 55 54 52 47 49 46 47 48 51 52 48 47 54 60 63 65 67 67 67 66
57 57 58 58 54 56 52 61 64 61 38 44 46 52 54 53 46 58 59 55 49 44 49 48 55 51 50 49 51 45 53 52 49 46 40 49 37 49 57 58 62 65 66 67 69
57 57 57 59 56 51 57 62 60 54 22 46 47 60 56 47 49 49 57 53 46 46 47 44 49 47 46 50 54 47 55 51 48 43 41 42 38 43 54 54 60 64 67 68 70
56 57 57 56 57 60 62 59 53 33 20 36 45 44 44 47 47 50 49 53 53 47 51 50 55 54 52 55 56 52 46 44 42 40 33 42 39 42 49 54 58 62 65 66 68
56 56 56 59 51 62 58 50 31 24 37 32 38 43 43 41 43 44 43 42 40 36 37 44 47 53 56 50 50 49 44 33 32 32 33 43 39 45 53 57 58 58 60 64 65
56 56 56 58 60 58 52 38 23 30 31 38 38 42 38 43 43 43 40 39 45 43 38 34 33 47 52 51 41 45 46 33 27 27 31 36 33 44 57 61 60 61 60 62 61
56 52 51 54 58 55 42 27 26 35 42 40 36 32 36 42 41 42 37 35 44 47 37 38 36 48 51 54 50 43 41 48 36 26 29 35 42 51 54 54 55 56 58 58 60
48 46 47 55 56 49 36 32 33 44 40 41 32 35 32 38 36 38 39 43 39 49 54 47 33 41 44 50 50 47 49 37 35 24 24 34 37 42 46 51 55 55 54 57 58
46 39 47 54 52 40 29 32 37 46 42 35 35 34 37 35 39 36 38 45 46 45 53 51 41 34 40 39 38 40 42 42 44 38 29 27 36 51 52 52 53 55 55 54 54
42 32 47 51 35 34 31 38 45 42 43 36 35 34 33 36 35 39 39 46 52 50 42 48 42 32 36 40 44 47 45 44 37 32 35 32 34 51 53 53 54 55 56 54 52
35 36 47 47 28 28 38 39 43 41 40 37 34 39 40 35 32 42 44 50 52 51 46 45 37 28 30 36 39 40 45 48 47 39 34 30 36 53 51 51 54 54 54 56 55
38 30 36 39 39 35 32 34 35 44 40 40 37 40 35 33 36 34 43 48 51 54 49 49 40 38 33 37 39 37 41 45 45 33 36 39 42 47 51 52 53 54 55 55 55
40 32 33 28 31 35 37 36 34 32 41 40 35 36 34 30 32 33 44 44 49 51 48 47 35 42 43 45 42 41 40 42 42 45 39 44 44 50 52 53 54 56 55 55 56
36 33 34 33 35 34 37 32 33 36 36 34 33 39 37 32 35 32 41 43 42 43 45 45 34 38 33 44 43 39 43 44 44 46 46 46 44 54 55 53 52 53 56 55 56
41 42 38 35 32 32 32 34 35 40 40 41 38 37 36 38 43 43 45 50 45 43 41 42 34 34 30 38 38 32 39 42 43 47 47 41 49 50 51 52 50 51 55 55 56
MSLP
1010.89 1011.35 1011.78 1012.07 1012.30 1012.72 1013.17 1013.35 1013.69 1014.03 1014.53 1014.99 1015.39 1015.80 1016.48 1016.88 1017.33 1017.41 1016.69 1016.18 1016.14 1016.55 1016.94 1016.67 1016.71 1016.73 1016.92 1017.15 1017.20 1016.47 1015.53 1014.45 1013.57 1012.95 1012.82 1012.85 1013.09 1013.53 1013.89 1014.31 1014.65 1015.39 1016.00 1016.39 1018.05
1010.52 1010.89 1011.39 1011.71 1011.97 1012.39 1012.78 1013.03 1013.50 1013.79 1014.41 1014.80 1015.13 1015.68 1016.45 1016.87 1017.16 1016.69 1016.33 1016.28 1016.41 1016.48 1016.93 1016.77 1016.84 1016.98 1017.21 1017.60 1017.26 1017.38 1015.63 1014.40 1013.62 1013.42 1013.15 1013.10 1013.30 1013.83 1014.15 1014.55 1015.22 1016.11 1016.74 1017.57 1018.49
1010.04 1010.54 1011.01 1011.27 1011.57 1011.99 1012.36 1012.72 1013.14 1013.47 1014.06 1014.50 1014.91 1015.58 1016.38 1016.78 1016.95 1015.50 1015.70 1016.14 1016.37 1016.65 1016.64 1016.90 1016.86 1017.44 1017.77 1017.95 1017.43 1016.85 1015.69 1014.39 1014.18 1014.09 1013.73 1013.54 1013.67 1013.77 1014.25 1014.62 1014.90 1015.77 1016.95 1017.99 1018.78
1009.32 1010.04 1010.57 1010.87 1011.12 1011.54 1011.96 1012.37 1012.83 1013.37 1013.83 1014.37 1014.94 1015.42 1016.27 1016.75 1016.16 1014.61 1014.76 1015.53 1016.30 1016.54 1016.45 1016.62 1016.97 1017.55 1018.01 1018.07 1016.94 1016.87 1015.48 1015.14 1014.65 1014.30 1014.17 1014.31 1014.23 1013.99 1014.26 1014.55 1014.60 1014.89 1016.02 1017.67 1018.67
1008.54 1009.32 1009.92 1010.43 1010.85 1011.24 1011.62 1012.18 1012.72 1013.01 1013.59 1014.03 1014.69 1015.37 1016.43 1016.22 1014.75 1014.58 1014.85 1015.61 1016.30 1016.50 1016.32 1016.38 1016.79 1017.25 1017.43 1017.58 1017.58 1016.97 1015.85 1014.99 1014.81 1014.79 1014.63 1014.86 1014.78 1014.67 1014.41 1014.19 1014.41 1014.88 1015.99 1017.42 1018.39
1007.66 1008.42 1009.15 1009.86 1010.56 1011.10 1011.37 1011.74 1012.23 1012.66 1013.27 1013.81 1014.42 1015.18 1015.75 1015.01 1014.42 1014.33 1015.10 1016.00 1016.12 1016.31 1016.22 1016.02 1016.50 1016.56 1016.66 1016.62 1016.76 1016.51 1015.80 1015.38 1015.19 1015.10 1014.98 1015.04 1015.02 1015.06 1014.54 1014.05 1014.58 1015.33 1016.17 1017.18 1018.02
1007.05 1007.80 1008.52 1009.29 1010.04 1010.66 1011.10 1011.51 1011.94 1012.46 1013.11 1013.66 1014.36 1015.10 1015.17 1014.09 1014.03 1014.42 1014.98 1015.69 1016.00 1016.07 1016.10 1016.03 1015.95 1016.35 1016.40 1016.21 1015.90 1016.22 1016.37 1015.60 1015.53 1015.34 1015.11 1015.09 1015.14 1015.14 1014.74 1014.48 1014.80 1015.37 1015.92 1016.88 1017.56
1006.47 1007.38 1008.10 1008.80 1009.56 1010.23 1010.77 1011.30 1011.91 1012.51 1013.10 1013.50 1014.28 1015.09 1014.55 1014.57 1014.40 1014.35 1014.93 1015.36 1015.95 1016.01 1016.06 1016.26 1016.09 1016.61 1016.84 1016.26 1015.78 1016.10 1016.10 1015.78 1015.25 1015.41 1015.02 1015.15 1014.84 1014.87 1014.83 1014.49 1014.82 1015.02 1015.41 1016.22 1016.94
1006.06 1006.96 1007.76 1008.50 1009.17 1009.84 1010.42 1011.12 1011.85 1012.68 1013.12 1013.69 1014.79 1015.03 1014.54 1014.48 1014.78 1014.25 1014.49 1014.92 1015.64 1015.84 1016.26 1016.47 1016.43 1017.05 1017.53 1017.02 1016.56 1015.94 1015.64 1015.74 1015.15 1014.92 1015.02 1015.31 1014.73 1014.36 1014.07 1014.36 1014.82 1014.80 1014.90 1015.32 1016.10
1005.56 1006.51 1007.36 1008.22 1008.99 1009.56 1010.26 1010.93 1011.81 1012.85 1013.40 1014.00 1014.46 1015.50 1014.39 1013.57 1014.34 1014.54 1014.47 1014.82 1015.40 1015.89 1016.56 1016.76 1017.01 1017.15 1017.44 1016.95 1015.30 1015.66 1015.98 1015.40 1015.27 1014.90 1014.85 1015.16 1014.54 1014.19 1013.97 1014.14 1014.55 1014.63 1014.75 1014.79 1015.07
1004.88 1005.99 1007.00 1007.91 1008.67 1009.24 1010.19 1011.57 1012.63 1013.05 1012.52 1011.75 1012.32 1012.16 1012.31 1012.93 1013.90 1014.41 1014.65 1014.91 1015.32 1015.96 1016.38 1016.72 1016.88 1016.01 1016.26 1016.78 1016.16 1015.74 1015.52 1015.38 1015.02 1014.77 1015.10 1015.06 1014.66 1014.24 1014.16 1014.09 1014.12 1014.37 1014.40 1014.44 1014.45
1004.28 1005.49 1006.56 1007.57 1008.31 1008.92 1009.82 1009.91 1010.08 1009.99 1011.70 1012.28 1012.12 1012.74 1012.55 1012.82 1013.60 1013.89 1014.80 1014.92 1015.16 1015.27 1015.92 1016.73 1015.42 1015.76 1016.33 1016.55 1016.44 1015.99 1015.61 1015.39 1015.45 1015.53 1015.67 1015.32 1014.63 1014.13 1013.85 1013.57 1013.57 1013.75 1013.73 1013.74 1013.93
1003.72 1004.99 1006.17 1007.14 1008.10 1008.86 1009.04 1009.33 1009.59 1009.65 1010.76 1011.65 1011.83 1012.09 1012.50 1013.22 1013.29 1013.48 1014.40 1014.40 1014.89 1014.98 1014.91 1014.66 1013.95 1015.44 1015.66 1015.70 1016.35 1016.08 1015.85 1015.87 1016.13 1016.31 1016.37 1016.12 1015.05 1014.13 1013.48 1013.00 1012.69 1012.70 1012.81 1012.77 1013.07
1003.27 1004.56 1005.81 1006.84 1008.45 1008.29 1008.78 1009.08 1009.23 1009.99 1010.52 1010.44 1011.04 1010.86 1012.25 1012.96 1013.09 1013.26 1013.81 1014.13 1014.79 1014.50 1014.45 1014.30 1014.27 1014.32 1014.81 1015.10 1015.75 1015.71 1016.17 1016.54 1017.00 1017.29 1017.32 1016.74 1015.12 1013.68 1012.94 1012.36 1012.06 1011.87 1012.01 1011.86 1012.05
1002.93 1004.22 1005.42 1006.19 1006.45 1007.48 1008.16 1008.95 1009.73 1010.10 1010.38 1009.41 1009.99 1009.89 1010.53 1012.20 1012.28 1012.86 1013.48 1013.89 1013.61 1013.98 1013.98 1012.68 1012.79 1013.69 1013.84 1013.72 1015.19 1015.81 1016.00 1016.93 1017.79 1018.14 1017.99 1017.40 1016.64 1013.63 1012.92 1011.94 1011.13 1010.72 1010.49 1010.64 1010.97
1002.60 1003.89 1004.98 1006.12 1006.25 1007.09 1007.91 1009.07 1009.76 1010.70 1009.76 1009.33 1009.62 1009.89 1010.81 1011.62 1012.07 1012.89 1013.53 1014.07 1013.57 1014.00 1013.19 1012.81 1012.37 1012.96 1012.81 1014.00 1014.83 1016.13 1016.93 1018.06 1018.85 1019.24 1017.99 1016.99 1016.59 1013.30 1012.44 1011.54 1010.60 1010.01 1009.78 1009.68 1009.92
1002.39 1003.57 1004.73 1005.49 1005.76 1006.41 1007.94 1009.34 1010.29 1010.04 1009.61 1010.07 1009.72 1009.80 1009.93 1010.65 1011.88 1012.39 1012.51 1012.68 1012.95 1013.05 1012.23 1012.83 1012.13 1012.43 1012.78 1013.95 1015.07 1015.93 1016.99 1018.34 1019.16 1019.18 1016.72 1016.01 1015.72 1013.10 1011.50 1010.64 1010.29 1010.10 1009.87 1009.46 1009.11
1002.36 1003.59 1004.62 1005.25 1005.59 1006.41 1007.84 1009.16 1009.53 1008.28 1009.21 1010.02 1010.22 1010.10 1009.84 1010.29 1010.84 1011.36 1012.03 1011.81 1012.25 1012.48 1012.33 1011.76 1012.74 1011.52 1011.91 1012.60 1013.97 1014.70 1015.39 1016.02 1017.31 1017.57 1016.49 1016.02 1013.82 1011.80 1010.83 1009.75 1009.97 1009.63 1009.34 1009.28 1009.25
1002.50 1004.00 1004.84 1005.44 1005.72 1006.57 1007.97 1008.94 1007.82 1007.67 1008.39 1009.34 1010.72 1010.88 1009.92 1010.07 1010.29 1011.32 1011.85 1011.44 1010.86 1010.64 1012.03 1011.10 1012.30 1012.40 1012.08 1012.30 1013.41 1014.82 1014.83 1014.93 1015.96 1016.96 1016.36 1014.70 1013.01 1011.52 1010.44 1009.99 1009.81 1009.70 1009.63 1009.41 1009.41
1002.30 1003.87 1005.25 1005.62 1005.94 1006.78 1007.89 1007.82 1007.83 1007.72 1008.45 1009.13 1009.91 1010.45 1009.77 1009.36 1009.99 1010.28 1010.06 1009.96 1010.91 1009.93 1009.24 1009.88 1012.17 1012.92 1013.08 1012.93 1013.76 1013.76 1014.35 1015.11 1015.56 1016.25 1015.81 1013.79 1012.46 1011.02 1010.26 1009.89 1009.58 1009.53 1009.56 1009.58 1009.41
1002.49 1004.16 1005.63 1005.73 1006.52 1007.49 1007.62 1007.89 1007.96 1007.96 1008.76 1009.81 1010.25 1010.24 1009.94 1009.83 1009.09 1008.76 1008.30 1008.35 1009.12 1009.83 1009.10 1008.91 1010.77 1013.72 1013.55 1012.85 1013.01 1014.09 1013.85 1014.13 1014.62 1014.65 1014.29 1013.53 1011.51 1009.47 1009.52 1009.57 1009.72 1009.86 1010.12 1010.04 1009.90
1002.24 1004.39 1005.82 1006.11 1007.36 1008.18 1007.83 1007.27 1007.57 1008.06 1008.85 1009.90 1010.71 1010.54 1010.82 1010.23 1009.39 1008.38 1007.59 1006.13 1006.44 1007.66 1008.90 1009.45 1010.67 1012.37 1013.03 1012.94 1012.92 1012.70 1012.69 1013.19 1013.46 1013.75 1013.77 1013.30 1011.61 1009.60 1009.51 1009.61 1009.66 1009.94 1010.12 1010.13 1010.20
1003.08 1005.04 1006.33 1006.34 1006.93 1007.39 1007.37 1007.54 1007.64 1007.81 1008.24 1009.07 1009.76 1010.07 1010.30 1010.32 1010.08 1007.25 1006.48 1006.18 1006.55 1006.44 1007.61 1009.27 1009.71 1011.43 1013.20 1014.18 1013.53 1013.07 1012.39 1012.12 1012.62 1013.18 1012.87 1012.96 1010.85 1009.57 1009.54 1009.61 1009.78 1010.10 1010.22 1010.18 1010.25
1002.44 1005.39 1007.07 1007.24 1006.57 1006.94 1007.52 1007.45 1007.50 1007.60 1008.15 1008.62 1008.81 1009.55 1010.23 1009.94 1009.44 1008.37 1005.86 1005.57 1006.03 1005.75 1006.93 1008.24 1008.35 1008.51 1009.10 1009.11 1010.99 1011.65 1011.45 1011.57 1011.97 1012.44 1011.62 1010.82 1010.17 1009.60 1009.41 1009.46 1009.64 1009.67 1009.71 1009.65 1009.78
1001.95 1004.25 1005.07 1006.05 1006.50 1006.84 1007.28 1007.29 1007.25 1007.54 1007.91 1008.67 1008.77 1008.85 1009.21 1009.29 1009.54 1007.36 1005.71 1005.23 1005.44 1005.40 1006.65 1007.50 1007.58 1008.43 1009.02 1009.41 1010.31 1010.51 1010.49 1011.10 1011.42 1010.38 1011.47 1008.93 1009.08 1009.27 1008.81 1008.83 1009.14 1009.33 1009.42 1009.40 1009.52
1002.46 1003.86 1005.44 1005.65 1006.86 1007.35 1007.06 1006.94 1006.95 1007.10 1007.34 1007.70 1007.58 1008.06 1008.58 1008.29 1008.43 1008.14 1006.00 1004.10 1004.26 1005.92 1006.26 1007.20 1007.99 1008.28 1009.77 1008.94 1009.48 1010.25 1010.45 1010.61 1010.43 1009.45 1009.53 1008.46 1008.54 1008.04 1008.28 1008.43 1008.64 1008.74 1008.90 1009.13 1009.48
1003.36 1003.79 1004.31 1005.77 1006.58 1007.01 1006.08 1006.05 1006.02 1006.48 1006.70 1006.57 1007.29 1008.28 1007.49 1005.83 1007.03 1006.97 1006.14 1004.10 1003.75 1004.64 1005.54 1007.01 1007.81 1008.81 1010.01 1009.58 1010.03 1010.41 1009.52 1009.13 1008.61 1009.07 1008.09 1008.35 1006.99 1007.85 1008.16 1008.44 1008.71 1008.93 1009.21 1009.40 1009.60
Wind_Speed
17 17 16 15 12 10 11 12 12 13 13 12 13 13 12 11 8 5 10 1 6 5 8 3 1 5 4 2 1 8 4 4 9 5 5 5 4 3 2 7 1 3 7 11 16
19 17 17 16 14 12 11 12 13 13 14 13 13 13 15 14 9 13 5 6 7 6 2 5 4 4 3 3 1 1 4 6 6 7 7 6 2 7 2 5 3 6 7 16 12
21 19 18 17 15 14 11 13 13 14 14 13 13 13 15 13 7 8 15 10 7 6 5 12 4 3 3 5 5 6 7 5 6 7 8 4 2 4 3 5 6 11 11 13 10
21 19 18 17 15 15 13 13 14 15 16 14 14 13 16 10 8 5 12 18 12 9 7 6 8 4 4 6 8 3 13 8 1 2 2 3 7 2 5 0 2 4 17 14 15
21 20 17 16 15 14 14 14 16 17 16 15 14 15 11 8 9 6 4 16 12 11 11 9 11 6 6 7 4 12 12 2 5 4 6 1 1 4 7 4 6 9 15 15 14
21 18 17 16 15 16 15 15 15 18 16 16 16 18 9 16 5 5 10 12 13 14 12 11 9 9 6 6 9 5 13 5 7 8 3 3 2 6 3 4 7 10 8 12 13
22 19 17 16 15 14 15 15 16 15 15 14 16 12 12 15 7 9 10 12 13 14 11 10 12 7 3 7 7 12 6 11 7 6 5 4 8 7 4 3 4 8 9 9 11
23 20 18 16 14 13 15 16 16 13 16 15 15 8 7 7 7 11 10 11 13 11 9 6 6 4 2 9 4 5 7 10 10 9 8 10 11 16 10 3 6 8 9 10 11
25 21 19 17 14 13 15 16 16 14 13 13 8 7 7 5 11 15 13 13 14 8 7 3 1 3 1 4 5 7 6 12 8 10 4 9 7 14 12 6 5 7 6 11 10
25 23 21 18 16 15 18 20 18 16 10 8 4 6 6 12 10 9 13 13 10 12 6 5 4 7 5 9 15 7 9 8 14 8 10 11 13 9 5 7 8 7 7 6 10
26 25 22 19 17 17 18 10 9 7 10 10 9 4 7 7 11 9 11 14 12 13 10 10 7 17 16 12 10 11 8 15 6 8 8 12 16 12 12 8 8 8 8 8 7
27 25 22 20 18 20 16 11 17 5 7 12 8 15 3 7 11 15 19 11 10 15 16 8 19 17 13 14 12 11 8 11 8 5 1 8 14 14 12 10 12 14 10 10 8
28 26 23 20 20 17 17 17 12 5 5 14 17 12 5 8 6 17 20 15 10 21 22 16 14 17 17 15 16 16 10 6 7 4 2 5 9 14 12 13 13 14 13 10 10
28 25 23 23 14 12 15 16 12 3 2 7 13 10 13 6 10 10 18 15 8 11 24 17 13 22 17 19 14 17 9 6 5 4 4 6 7 8 9 17 18 17 15 15 16
27 27 27 24 10 14 12 12 7 3 6 10 13 6 17 13 9 13 15 13 14 19 11 14 25 25 24 20 17 4 13 11 5 2 2 3 4 4 9 14 15 16 21 20 18
29 28 28 15 6 14 15 13 5 5 9 5 10 16 17 17 8 7 15 14 3 10 26 15 6 17 18 16 12 8 7 8 5 0 7 10 7 6 9 14 8 9 10 11 16
30 29 22 9 11 15 17 10 8 11 4 6 7 14 23 17 19 10 22 23 15 9 11 7 14 14 23 18 9 9 10 3 5 6 11 9 11 13 12 11 7 8 9 9 8
30 28 14 6 11 18 10 9 6 7 6 4 3 6 21 18 22 21 6 22 21 14 10 10 12 17 12 19 10 21 18 6 9 6 6 1 8 6 19 19 10 9 7 7 5
31 9 8 10 14 11 11 12 9 5 8 9 9 1 17 19 5 20 20 5 17 23 11 14 5 9 13 17 15 10 14 5 4 1 3 6 6 7 9 8 7 8 8 7 7
9 9 7 9 10 11 9 8 6 3 4 3 7 10 7 22 15 25 23 19 5 19 12 10 6 4 1 8 6 10 8 4 2 6 5 5 6 5 5 9 6 2 5 7 5
11 7 7 9 7 4 7 7 3 3 7 6 5 3 9 8 21 15 12 10 31 16 19 13 6 4 5 7 15 7 13 6 5 4 4 2 5 5 6 4 7 6 5 5 4
4 6 6 8 7 2 10 15 8 11 7 5 5 4 4 5 12 22 23 27 30 34 30 12 6 9 10 5 2 8 12 8 6 5 2 5 7 2 9 7 7 8 7 4 3
6 5 6 6 8 7 5 16 14 10 11 9 6 11 2 3 7 23 23 17 33 29 24 12 6 9 6 3 2 8 12 18 7 3 7 6 6 4 6 5 5 8 5 5 5
6 6 3 4 4 10 10 9 17 10 5 5 2 5 3 9 11 15 21 13 31 23 20 15 6 11 19 23 12 13 18 18 16 5 5 14 3 3 8 8 7 7 7 4 1
3 3 4 11 13 9 15 9 17 11 11 12 5 13 8 8 13 21 17 9 24 21 17 9 6 9 1 16 14 22 23 20 19 24 10 23 20 13 8 8 6 6 4 4 4
5 5 2 5 9 15 12 15 18 19 11 10 13 10 14 14 15 14 17 14 13 11 17 5 3 6 4 14 19 19 20 20 20 27 24 17 11 8 8 3 4 1 6 8 6
2 2 7 10 14 14 15 11 16 16 12 11 12 13 17 23 17 20 31 16 16 16 15 14 7 8 4 8 10 9 24 27 26 18 30 19 21 4 4 3 2 1 7 6 7
Wind_Direction
220 221 230 231 223 220 225 212 206 194 189 188 182 168 156 146 142 196 222 130 131 75 329 146 181 117 63 357 320 321 261 246 252 263 88 124 127 330 298 114 25 78 45 114 140
218 221 226 226 224 225 219 213 202 196 192 188 182 178 151 150 185 219 224 122 118 112 278 220 165 80 103 179 326 222 257 245 0 15 25 117 252 144 156 134 145 99 72 112 141
209 213 221 229 223 220 220 209 202 194 194 188 183 177 157 166 240 239 207 172 153 175 196 289 114 98 97 324 201 206 250 301 55 19 5 23 202 114 190 191 195 170 146 139 161
204 208 211 216 219 218 220 207 203 191 189 185 176 163 156 184 227 131 208 169 171 190 192 234 177 148 152 190 249 280 237 230 270 45 27 20 335 121 208 282 55 180 152 150 177
202 204 205 208 210 221 223 206 203 186 184 185 176 152 152 211 231 94 151 166 173 191 195 192 209 166 173 196 221 274 273 193 126 188 96 173 322 353 306 210 112 106 144 155 179
204 206 207 201 204 213 222 204 193 187 178 186 173 156 181 228 211 197 124 164 194 193 200 195 231 198 211 208 161 276 229 207 168 203 127 101 8 10 37 327 111 131 158 159 175
201 206 205 200 201 210 218 203 189 177 174 182 179 165 214 214 210 211 153 178 206 193 193 214 231 235 308 225 202 206 266 266 189 240 197 103 299 253 247 58 210 171 170 170 178
197 201 199 202 204 211 206 196 174 162 180 178 178 174 230 213 256 179 179 171 192 202 222 212 245 317 351 325 168 196 223 239 191 205 227 135 243 251 258 156 243 206 185 172 179
194 193 192 196 202 206 196 181 163 168 158 171 164 197 237 136 212 203 184 164 174 189 200 295 159 194 43 241 188 193 208 224 224 186 139 187 234 232 231 166 250 279 217 174 174
189 186 187 189 195 197 187 172 159 144 141 108 102 151 206 204 172 216 186 167 151 163 128 167 182 194 211 216 204 181 215 219 216 215 201 205 232 251 242 170 202 235 276 229 176
183 182 181 185 187 194 178 138 150 191 202 190 162 267 114 145 160 189 211 167 167 162 170 191 183 208 201 223 247 228 212 218 206 226 185 224 238 226 238 239 234 231 223 251 225
176 177 178 180 181 185 159 180 183 127 166 228 216 202 152 187 173 208 186 173 188 186 177 174 217 203 213 208 242 250 229 216 234 54 236 246 244 244 247 243 247 254 242 212 216
172 173 175 173 171 175 182 179 173 141 180 192 216 212 174 166 200 194 193 192 199 197 194 196 212 193 207 223 204 230 213 217 233 122 316 2 274 262 254 250 237 238 235 231 207
166 167 167 158 158 172 186 175 184 115 174 210 187 221 190 157 219 170 210 181 197 232 194 217 188 185 201 222 197 215 181 216 115 133 224 167 280 238 240 238 238 238 239 239 221
162 162 163 163 146 175 166 160 106 172 199 190 167 179 168 183 117 202 176 215 191 198 217 196 183 188 199 203 196 257 194 205 165 175 55 209 265 259 227 246 242 228 227 227 225
158 159 159 180 156 164 148 144 159 142 225 150 134 176 165 194 196 128 186 222 250 223 204 211 186 185 197 196 182 137 86 60 63 326 241 209 202 221 232 238 233 245 230 213 216
155 158 159 167 167 158 137 146 163 201 185 176 177 178 181 183 183 180 188 195 192 201 190 173 199 179 177 184 140 145 152 144 198 216 248 169 204 241 275 269 250 290 288 267 218
153 148 148 145 137 132 152 149 195 197 179 99 92 217 199 177 207 197 232 198 196 180 177 179 188 162 176 186 169 182 176 157 198 203 208 278 233 244 217 246 259 252 265 259 289
141 138 135 153 141 144 149 179 199 171 186 155 121 28 208 202 163 194 196 220 194 177 186 172 149 185 181 153 155 173 203 194 100 122 61 198 256 301 230 251 244 255 249 258 262
134 127 124 147 142 159 155 187 204 182 56 137 187 183 231 195 182 194 187 199 233 213 184 172 116 234 85 126 183 183 139 171 262 159 225 242 227 228 195 228 240 220 223 229 238
126 101 156 135 124 145 189 205 161 184 133 140 180 291 223 242 201 196 199 195 198 214 233 147 128 205 163 194 163 177 183 210 172 199 183 150 248 210 145 136 119 89 65 51 49
93 106 162 150 127 169 203 201 211 165 163 126 156 147 246 212 239 199 207 197 186 188 214 175 158 155 189 0 308 204 181 197 187 210 195 126 272 56 137 136 136 142 143 138 93
92 92 158 170 169 195 205 207 218 213 202 173 205 194 215 244 281 207 209 223 186 182 173 183 157 129 119 142 344 194 195 202 203 85 202 153 233 208 145 141 162 145 172 148 151
104 119 116 212 262 182 184 212 207 211 191 194 253 191 211 267 279 280 213 192 190 193 149 202 157 183 195 196 142 192 193 200 198 190 191 221 238 190 176 183 177 193 207 189 183
69 144 164 178 205 208 181 196 200 199 200 181 202 213 202 253 283 279 223 168 190 186 157 220 147 174 305 165 172 190 182 191 200 225 196 235 218 212 188 171 173 181 218 310 321
115 131 134 154 173 205 206 205 210 202 168 206 224 202 198 220 224 291 189 180 184 153 163 179 156 104 329 168 174 183 194 195 207 221 223 239 257 179 215 139 144 5 312 306 310
60 13 130 143 183 188 215 210 214 207 197 214 200 226 216 228 232 248 254 174 161 172 164 174 136 145 176 135 123 178 196 195 214 213 218 219 228 143 139 164 317 304 278 286 301